Location: *
(51.2167°N, 10.0667°E)
Time: 02:05:05
(UTC+00:00)

Aureole 1 Rocket - Pass Details

Date: 12 December 2019
Orbit: 378 x 1382 km, 73.9° (Epoch: 20 January)

Event Time Altitude Azimuth Distance (km) Brightness Sun altitude
Rises 17:01:19 0° 198° (SSW) 2,240 6.5 -16.0°
Reaches altitude 10° 17:03:12 10° 196° (SSW) 1,411 5.3 -16.3°
Maximum altitude 17:06:11 70° 112° (ESE) 445 2.1 -16.7°
Enters shadow 17:07:09 41° 42° (NE) 631 2.7 -16.9°
